| time (UTC) | temp F | wind direction | speed MPH | gust MPH | rain 1hr in | rain 24hr in | rain mn in | humidity % | barometer mb |
| 20260504004023 | 67 | 212 | 2.0 | 7.0 | 0.00 | 0.00 | 0.00 | 46 | 1014.3 |
| 20260504003029 | 67 | 213 | 3.0 | 7.0 | 0.00 | 0.00 | 0.00 | 44 | 1014.3 |
| 20260504002016 | 68 | 205 | 3.0 | 7.0 | 0.00 | 0.00 | 0.00 | 44 | 1014.2 |
| 20260504001041 | 69 | 188 | 3.0 | 6.0 | 0.00 | 0.00 | 0.00 | 42 | 1014.3 |
| 20260504000026 | 69 | 218 | 3.0 | 7.0 | 0.00 | 0.00 | 0.00 | 42 | 1014.4 |
| 20260503235031 | 69 | 195 | 3.0 | 7.0 | 0.00 | 0.00 | 0.00 | 42 | 1014.3 |
| 20260503234019 | 69 | 188 | 4.0 | 8.0 | 0.00 | 0.00 | 0.00 | 41 | 1014.2 |
| 20260503233024 | 70 | 209 | 4.0 | 9.0 | 0.00 | 0.00 | 0.00 | 41 | 1014.5 |
| 20260503232029 | 70 | 234 | 4.0 | 10.0 | 0.00 | 0.00 | 0.00 | 40 | 1014.9 |
| 20260503231017 | 70 | 237 | 4.0 | 11.0 | 0.00 | 0.00 | 0.00 | 39 | 1014.8 |
| 20260503230022 | 71 | 203 | 4.0 | 11.0 | 0.00 | 0.00 | 0.00 | 40 | 1015.1 |
| 20260503225027 | 71 | 194 | 3.0 | 13.0 | 0.00 | 0.00 | 0.00 | 40 | 1015.2 |
| 20260503224032 | 71 | 223 | 5.0 | 15.0 | 0.00 | 0.00 | 0.00 | 39 | 1015.1 |
| 20260503223020 | 70 | 213 | 3.0 | 9.0 | 0.00 | 0.00 | 0.00 | 40 | 1015.3 |
| 20260503222045 | 71 | 175 | 4.0 | 9.0 | 0.00 | 0.00 | 0.00 | 41 | 1015.6 |
| 20260503221050 | 71 | 234 | 4.0 | 8.0 | 0.00 | 0.00 | 0.00 | 41 | 1015.7 |
| 20260503220017 | 71 | 221 | 5.0 | 11.0 | 0.00 | 0.00 | 0.00 | 41 | 1015.8 |
| 20260503215023 | 70 | 197 | 4.0 | 9.0 | 0.00 | 0.00 | 0.00 | 41 | 1016.1 |
| 20260503214124 | 70 | 222 | 4.0 | 8.0 | 0.00 | 0.00 | 0.00 | 41 | 1016.3 |
| 20260503213032 | 71 | 203 | 6.0 | 11.0 | 0.00 | 0.00 | 0.00 | 40 | 1016.5 |
| 20260503212021 | 71 | 225 | 3.0 | 8.0 | 0.00 | 0.00 | 0.00 | 42 | 1016.4 |
| 20260503211046 | 70 | 212 | 5.0 | 14.0 | 0.00 | 0.00 | 0.00 | 42 | 1017.1 |
| 20260503210030 | 70 | 227 | 7.0 | 14.0 | 0.00 | 0.00 | 0.00 | 42 | 1017.0 |
| 20260503205019 | 70 | 206 | 4.0 | 13.0 | 0.00 | 0.00 | 0.00 | 43 | 1017.1 |
| 20260503204023 | 70 | 188 | 5.0 | 15.0 | 0.00 | 0.00 | 0.00 | 43 | 1017.3 |
| 20260503203028 | 70 | 213 | 6.0 | 14.0 | 0.00 | 0.00 | 0.00 | 43 | 1017.7 |
| 20260503202017 | 70 | 231 | 5.0 | 14.0 | 0.00 | 0.00 | 0.00 | 43 | 1017.9 |
| 20260503201021 | 70 | 214 | 4.0 | 6.0 | 0.00 | 0.00 | 0.00 | 43 | 1018.1 |
| 20260503200027 | 69 | 212 | 5.0 | 11.0 | 0.00 | 0.00 | 0.00 | 42 | 1018.5 |
| 20260503195031 | 69 | 249 | 9.0 | 17.0 | 0.00 | 0.00 | 0.00 | 41 | 1018.6 |
| 20260503194019 | 69 | 203 | 4.0 | 8.0 | 0.00 | 0.00 | 0.00 | 44 | 1019.1 |
| 20260503193024 | 69 | 231 | 6.0 | 14.0 | 0.00 | 0.00 | 0.00 | 44 | 1019.0 |
| 20260503192029 | 68 | 243 | 4.0 | 9.0 | 0.00 | 0.00 | 0.00 | 46 | 1019.2 |
| 20260503191018 | 68 | 240 | 4.0 | 11.0 | 0.00 | 0.00 | 0.00 | 45 | 1019.4 |
| 20260503190022 | 68 | 227 | 3.0 | 7.0 | 0.00 | 0.00 | 0.00 | 47 | 1019.7 |
| 20260503185027 | 67 | 199 | 4.0 | 9.0 | 0.00 | 0.00 | 0.00 | 47 | 1019.9 |
| 20260503184033 | 67 | 244 | 7.0 | 14.0 | 0.00 | 0.00 | 0.00 | 47 | 1020.2 |
| 20260503183020 | 66 | 237 | 5.0 | 13.0 | 0.00 | 0.00 | 0.00 | 46 | 1020.6 |
| 20260503182025 | 67 | 264 | 7.0 | 15.0 | 0.00 | 0.00 | 0.00 | 46 | 1020.8 |
| 20260503181030 | 67 | 191 | 5.0 | 11.0 | 0.00 | 0.00 | 0.00 | 46 | 1020.7 |
| 20260503180018 | 66 | 252 | 3.0 | 10.0 | 0.00 | 0.00 | 0.00 | 47 | 1021.1 |
| 20260503175022 | 66 | 224 | 5.0 | 14.0 | 0.00 | 0.00 | 0.00 | 48 | 1021.1 |
| 20260503174109 | 65 | 263 | 3.0 | 9.0 | 0.00 | 0.00 | 0.00 | 48 | 1021.4 |
| 20260503173113 | 65 | 244 | 5.0 | 13.0 | 0.00 | 0.00 | 0.00 | 47 | 1021.2 |
| 20260503172021 | 64 | 205 | 3.0 | 7.0 | 0.00 | 0.00 | 0.00 | 49 | 1021.4 |
| 20260503171025 | 65 | 222 | 4.0 | 8.0 | 0.00 | 0.00 | 0.00 | 50 | 1021.4 |
| 20260503160106 | 61 | 222 | 4.0 | 9.0 | 0.00 | 0.00 | 0.00 | 54 | 1022.4 |
| 20260503131026 | 49 | 16 | 0.0 | 3.0 | 0.00 | 0.00 | 0.00 | 99 | 1022.5 |
| 20260503081039 | 39 | 0.0 | 0.0 | 0.00 | 0.00 | 0.00 | 99 | 1021.7 | |
| 20260503080107 | 39 | 0.0 | 0.0 | 0.00 | 0.00 | 0.00 | 99 | 1021.7 | |
| 20260503072030 | 39 | 0.0 | 0.0 | 0.00 | 0.00 | 0.00 | 99 | 1021.7 | |
| 20260503071018 | 39 | 0.0 | 0.0 | 0.00 | 0.00 | 0.00 | 99 | 1021.7 | |
| 20260503055023 | 41 | 0.0 | 0.0 | 0.00 | 0.00 | 0.00 | 99 | 1021.6 | |
| 20260503054029 | 40 | 0.0 | 0.0 | 0.00 | 0.00 | 0.00 | 99 | 1021.6 | |
| 20260503053016 | 40 | 0.0 | 0.0 | 0.00 | 0.00 | 0.00 | 99 | 1021.7 | |
| 20260503052021 | 41 | 0.0 | 0.0 | 0.00 | 0.00 | 0.00 | 99 | 1021.7 | |
| 20260503051026 | 41 | 0.0 | 0.0 | 0.00 | 0.00 | 0.00 | 99 | 1021.6 | |
| 20260503050052 | 41 | 0.0 | 0.0 | 0.00 | 0.00 | 0.00 | 98 | 1021.5 | |
| 20260503045019 | 42 | 0.0 | 0.0 | 0.00 | 0.00 | 0.00 | 98 | 1021.5 | |
| 20260503044024 | 42 | 0.0 | 0.0 | 0.00 | 0.00 | 0.00 | 98 | 1021.6 | |
| 20260503043029 | 42 | 0.0 | 0.0 | 0.00 | 0.00 | 0.00 | 98 | 1021.5 | |
| 20260503042017 | 43 | 0.0 | 0.0 | 0.00 | 0.00 | 0.00 | 98 | 1021.4 | |
| 20260503041043 | 42 | 0.0 | 0.0 | 0.00 | 0.00 | 0.00 | 98 | 1021.4 | |
| 20260503040027 | 42 | 0.0 | 0.0 | 0.00 | 0.00 | 0.00 | 97 | 1021.3 | |
| 20260503035032 | 43 | 0.0 | 0.0 | 0.00 | 0.00 | 0.00 | 97 | 1021.4 | |
| 20260503034020 | 43 | 0.0 | 0.0 | 0.00 | 0.00 | 0.00 | 97 | 1021.5 | |
| 20260503033024 | 43 | 0.0 | 0.0 | 0.00 | 0.00 | 0.00 | 97 | 1021.5 | |
| 20260503032030 | 44 | 0.0 | 0.0 | 0.00 | 0.00 | 0.00 | 96 | 1021.4 | |
| 20260503031018 | 44 | 0.0 | 0.0 | 0.00 | 0.00 | 0.00 | 96 | 1021.5 | |
| 20260503030023 | 44 | 0.0 | 0.0 | 0.00 | 0.00 | 0.00 | 95 | 1021.5 | |
| 20260503025048 | 45 | 0.0 | 0.0 | 0.00 | 0.00 | 0.00 | 94 | 1021.5 | |
| 20260503024032 | 45 | 0.0 | 0.0 | 0.00 | 0.00 | 0.00 | 94 | 1021.4 | |
| 20260503023102 | 45 | 0.0 | 0.0 | 0.00 | 0.00 | 0.00 | 93 | 1021.4 | |
| 20260503022047 | 46 | 0.0 | 0.0 | 0.00 | 0.00 | 0.00 | 92 | 1021.2 | |
| 20260503021030 | 46 | 0.0 | 0.0 | 0.00 | 0.00 | 0.00 | 91 | 1021.3 | |
| 20260503020039 | 47 | 0.0 | 0.0 | 0.00 | 0.00 | 0.00 | 90 | 1021.1 | |
| 20260503015023 | 47 | 0.0 | 0.0 | 0.00 | 0.00 | 0.00 | 89 | 1021.1 | |
| 20260503014049 | 48 | 0.0 | 0.0 | 0.00 | 0.00 | 0.00 | 86 | 1021.0 | |
| 20260503013016 | 48 | 0.0 | 0.0 | 0.00 | 0.00 | 0.00 | 83 | 1020.8 | |
| 20260503012042 | 49 | 0.0 | 0.0 | 0.00 | 0.00 | 0.00 | 82 | 1020.8 | |
| 20260503011026 | 50 | 0.0 | 0.0 | 0.00 | 0.00 | 0.00 | 80 | 1020.7 | |
| 20260503010031 | 51 | 0.0 | 0.0 | 0.00 | 0.00 | 0.00 | 76 | 1020.6 | |
| 20260503005019 | 52 | 0.0 | 0.0 | 0.00 | 0.00 | 0.00 | 74 | 1020.6 |